HB9TQJ-6 Weather Reports


time (UTC)temp
F
wind
direction
speed
knots
gust
knots
rain 1hr
in
rain 24hr
in
rain mn
in
humidity
%
barometer
mb
20260506014050 53 90 0.9 1.7 0.00 0.03 0.00 83 1007.4
20260506013028 53 90 0.9 1.7 0.00 0.03 0.00 83 1007.5
20260506012026 54 90 0.9 0.9 0.00 0.03 0.00 82 1007.6
20260506011024 54 90 0.9 1.7 0.00 0.03 0.00 83 1007.7
20260506010021 54 90 0.9 1.7 0.00 0.03 0.00 83 1007.8
20260506005020 53 90 0.9 1.7 0.00 0.03 0.00 83 1007.9
20260506004017 53 90 0.9 1.7 0.00 0.03 0.00 83 1007.9
20260506003020 53 90 0.9 1.7 0.00 0.03 0.00 83 1007.9
20260506002014 54 90 0.9 1.7 0.00 0.03 0.00 82 1008.1
20260506001012 54 90 0.9 1.7 0.00 0.03 0.00 82 1008.1
20260506000010 54 90 0.9 1.7 0.00 0.03 0.00 82 1008.2
20260505235027 54 90 0.9 1.7 0.00 0.03 0.00 82 1008.3
20260505234005 54 90 0.9 1.7 0.00 0.03 0.00 82 1008.4
20260505233023 54 90 0.9 1.7 0.00 0.03 0.00 83 1008.5
20260505231500 54 90 0.9 1.7 0.00 0.03 0.00 83 1008.6
20260505230459 54 90 0.9 1.7 0.00 0.03 0.00 83 1008.6
20260505225457 54 59 0.9 1.7 0.00 0.03 0.00 83 1008.6
20260505224514 54 90 0.9 1.7 0.00 0.03 0.00 83 1008.6
20260505223452 53 90 0.9 1.7 0.00 0.03 0.00 83 1008.6
20260505222450 53 90 0.9 1.7 0.00 0.03 0.00 83 1008.5
20260505221448 53 75 0.9 1.7 0.00 0.03 0.00 83 1008.6
20260505220446 53 90 0.9 1.7 0.00 0.03 0.00 83 1008.7
20260505215444 54 90 0.9 1.7 0.00 0.03 0.03 83 1008.7
20260505214442 54 90 0.9 1.7 0.00 0.03 0.03 83 1008.7
20260505213440 54 90 0.9 1.7 0.00 0.03 0.03 82 1008.8
20260505212438 54 90 0.9 1.7 0.00 0.03 0.03 82 1008.8
20260505211436 54 90 0.9 1.7 0.00 0.03 0.03 82 1008.8
20260505210435 54 90 0.9 1.7 0.00 0.03 0.03 82 1008.8
20260505205432 55 90 0.9 1.7 0.00 0.03 0.03 82 1008.8
20260505204451 55 90 0.9 2.6 0.00 0.03 0.03 82 1008.8
20260505203428 55 90 0.9 1.7 0.00 0.03 0.03 82 1009.0
20260505202426 55 90 0.9 1.7 0.00 0.03 0.03 82 1008.8
20260505201424 55 90 0.9 1.7 0.00 0.03 0.03 82 1008.6
20260505200422 56 90 0.9 1.7 0.00 0.03 0.03 82 1008.6
20260505195421 56 90 0.9 3.5 0.00 0.03 0.03 82 1008.5
20260505194418 56 90 0.9 1.7 0.00 0.03 0.03 82 1008.3
20260505193423 56 113 0.9 1.7 0.00 0.03 0.03 82 1008.3
20260505192414 57 109 0.9 1.7 0.00 0.03 0.03 82 1008.2
20260505191412 57 135 0.9 2.6 0.00 0.03 0.03 82 1008.2
20260505190410 58 90 0.9 1.7 0.00 0.03 0.03 81 1008.2
20260505185413 59 90 0.9 1.7 0.00 0.03 0.03 81 1008.1
20260505184427 59 90 0.9 1.7 0.01 0.03 0.03 81 1008.1
20260505183404 60 90 0.9 1.7 0.01 0.03 0.03 80 1008.0
20260505182402 61 90 0.9 1.7 0.01 0.03 0.03 80 1007.8
20260505181401 61 90 0.9 0.9 0.01 0.03 0.03 79 1007.8
20260505180419 62 90 0.9 0.9 0.01 0.03 0.03 79 1008.0
20260505175356 62 90 0.9 0.9 0.00 0.03 0.02 76 1007.7
20260505174353 62 90 0.9 0.9 0.00 0.03 0.02 75 1008.0
20260505173352 62 90 0.9 0.9 0.00 0.03 0.02 74 1007.7
20260505172350 63 90 0.9 0.9 0.00 0.03 0.02 74 1007.3
20260505171409 63 90 0.9 0.9 0.00 0.03 0.02 74 1007.3
20260505170346 63 90 0.9 0.9 0.00 0.04 0.02 74 1007.3
20260505165344 64 45 0.9 0.9 0.00 0.04 0.02 73 1007.3
20260505164342 64 18 0.9 1.7 0.00 0.04 0.02 71 1007.3
20260505163340 64 53 0.9 0.9 0.00 0.04 0.02 71 1007.4
20260505162338 64 53 0.9 0.9 0.00 0.04 0.02 71 1007.4
20260505161337 65 45 0.9 0.9 0.00 0.05 0.02 71 1007.4
20260505160335 65 45 0.9 0.9 0.00 0.06 0.02 71 1007.4
20260505153328 64 315 0.9 2.6 0.00 0.08 0.02 71 1007.5
20260505152349 65 53 0.9 1.7 0.00 0.08 0.02 71 1007.6
20260505151346 65 53 0.9 1.7 0.00 0.09 0.02 71 1007.6
20260505150322 65 38 0.9 2.6 0.00 0.10 0.02 69 1007.4
20260505140311 68 40 0.9 1.7 0.00 0.10 0.02 66 1006.7
20260505124254 65 50 0.9 0.9 0.00 0.10 0.02 70 1007.4
20260505123255 65 59 0.9 1.7 0.00 0.10 0.02 69 1007.5
20260505122255 65 126 0.9 1.7 0.00 0.10 0.02 70 1007.5
20260505121248 65 90 0.9 1.7 0.00 0.10 0.02 71 1007.8
20260505120246 65 49 0.9 0.9 0.00 0.10 0.02 72 1007.8
20260505115245 65 49 0.9 0.9 0.00 0.10 0.02 72 1007.8
20260505114241 65 90 0.9 1.7 0.00 0.10 0.02 72 1008.0
20260505113247 64 53 0.9 0.9 0.00 0.10 0.02 73 1008.0
20260505112238 64 52 0.9 0.9 0.00 0.10 0.02 74 1008.2
20260505111236 63 90 0.9 1.7 0.00 0.10 0.02 75 1008.3
20260505110253 63 90 0.9 1.7 0.00 0.10 0.02 75 1008.4
20260505101224 63 90 0.9 1.7 0.00 0.10 0.02 73 1008.5
20260505100223 62 90 0.9 0.9 0.00 0.10 0.02 74 1008.4
20260505095220 62 90 0.9 0.9 0.00 0.10 0.02 74 1008.4
20260505094220 62 90 0.9 0.9 0.00 0.10 0.02 74 1008.4
20260505093216 61 90 0.9 1.7 0.00 0.10 0.02 77 1008.5
20260505092215 61 90 0.9 1.7 0.00 0.10 0.02 78 1008.4
20260505091231 60 90 0.9 0.9 0.00 0.10 0.02 79 1008.5
20260505090230 60 55 0.9 1.7 0.00 0.10 0.02 80 1008.5
20260505085208 59 90 0.9 1.7 0.00 0.10 0.02 81 1008.6
20260505084205 59 90 0.9 0.9 0.00 0.10 0.02 82 1008.6
20260505083204 59 90 0.9 1.7 0.00 0.10 0.02 82 1008.7
20260505082202 58 90 0.9 1.7 0.01 0.10 0.02 82 1008.8
20260505081202 58 90 0.9 0.9 0.02 0.10 0.02 82 1009.1
20260505080158 58 90 0.9 1.7 0.02 0.10 0.02 82 1009.1
20260505075156 58 59 0.9 1.7 0.02 0.10 0.02 82 1009.3
20260505074154 57 70 0.9 1.7 0.02 0.09 0.02 83 1009.4
20260505073152 57 90 0.9 0.9 0.02 0.09 0.02 82 1009.4
20260505072150 57 90 0.9 1.7 0.01 0.08 0.01 82 1009.4
20260505071148 57 60 0.9 0.9 0.00 0.08 0.00 81 1009.4
20260505070146 57 60 0.9 1.7 0.00 0.08 0.00 81 1009.5
20260505065204 57 90 0.9 0.9 0.00 0.08 0.00 81 1009.5
20260505064142 57 90 0.9 1.7 0.00 0.08 0.00 82 1009.6
20260505063140 57 90 0.9 1.7 0.00 0.08 0.00 82 1009.7
20260505062139 56 90 0.9 1.7 0.00 0.08 0.00 82 1009.7
20260505061156 56 90 0.9 1.7 0.00 0.08 0.00 82 1009.7
20260505060154 56 90 0.9 1.7 0.00 0.08 0.00 83 1009.7
20260505055132 56 90 0.9 1.7 0.00 0.08 0.00 84 1009.7
20260505054130 55 90 0.9 1.7 0.00 0.08 0.00 84 1009.6
20260505053127 55 90 0.9 1.7 0.00 0.08 0.00 84 1009.5
20260505052126 55 90 0.9 1.7 0.00 0.08 0.00 84 1009.5
20260505051137 55 90 0.9 1.7 0.00 0.08 0.00 84 1009.5
20260505050122 55 90 0.9 1.7 0.00 0.08 0.00 84 1009.4
20260505041112 55 90 0.9 1.7 0.00 0.08 0.00 84 1009.4
20260505040113 55 90 0.9 1.7 0.00 0.08 0.00 84 1009.4
20260505035108 55 90 0.9 1.7 0.00 0.08 0.00 84 1009.5
20260505034106 55 90 0.9 1.7 0.00 0.08 0.00 84 1009.6
20260505033105 55 90 0.9 0.9 0.00 0.08 0.00 83 1009.6
20260505032103 55 90 0.9 1.7 0.00 0.08 0.00 84 1009.6
20260505031120 55 90 0.9 1.7 0.00 0.08 0.00 84 1009.6
20260505030058 55 90 0.9 1.7 0.00 0.08 0.00 84 1009.6
20260505025057 55 90 0.9 1.7 0.00 0.08 0.00 84 1009.9
20260505024054 55 90 0.9 1.7 0.00 0.08 0.00 84 1009.9
20260505023052 55 90 0.9 1.7 0.00 0.08 0.00 84 1010.0
20260505022050 55 90 0.9 1.7 0.00 0.08 0.00 84 1010.1
20260505021048 55 90 0.9 1.7 0.00 0.08 0.00 84 1010.1
20260505020046 55 90 0.9 1.7 0.00 0.08 0.00 84 1010.0
20260505015044 56 90 0.9 1.7 0.00 0.08 0.00 84 1010.1